Location: Colorado Springs
(38.8340°N, 104.8210°W)
Time: 07:09:13
(UTC-07:00)

Vanguard 3 - Pass Details

Date: 25 October 2017
Orbit: 509 x 3263 km, 33.4° (Epoch: 21 November)

Event Time Altitude Azimuth Distance (km) Brightness Sun altitude
Rises 06:21:42 0° 266° (W) 6,577 - -11.8°
Reaches altitude 10° 06:26:42 10° 264° (W) 5,192 - -10.9°
Exits shadow 06:26:59 11° 264° (W) 5,112 10.6 -10.8°
Maximum altitude 06:40:16 64° 188° (S) 1,766 8.9 -8.3°
Drops below altitude 10° 06:47:44 10° 108° (ESE) 2,979 11.8 -6.8°
Sets 06:49:53 0° 105° (ESE) 3,682 13.2 -6.4°
